Pompano Beach, FL

10:46 PM EDT on May 26, 2017 (GMT -0400)
Pompano Beach

Weather History for KPMP - April, 2013

Change the Weather History Date:

Friday, April 12, 2013

  Actual Average Record
Temperature  
Mean Temperature 81 °F -  
Max Temperature 86 °F 82 °F 93 °F (1999)
Min Temperature 78 °F 65 °F 50 °F (1973)
Cooling Degree Days 16    
Growing Degree Days 31 (Base 50)    
Moisture  
Dew Point 75 °F    
Average Humidity 84    
Maximum Humidity 93    
Minimum Humidity 72    
Precipitation  
Precipitation 0.00 in - - ()
Sea Level Pressure  
Sea Level Pressure 29.93 in    
Wind  
Wind Speed 13 mph (SSE)    
Max Wind Speed 20 mph    
Max Gust Speed 29 mph    
Visibility 10 miles    
Events Rain , Thunderstorm    
Averages and records for this station are not official NWS values.
T = Trace of Precipitation, MM = Missing Value Source: NWS Daily Summary

Daily Weather History Graph

Daily Weather History Graph

Search for Another Location

Airport or City:

Trip Planner

Search our weather history database for the weather conditions in past years. The results will help you decide how hot, cold, wet, or windy it might be!

Date:

Astronomy

Apr. 12, 2013 Rise Set
Actual Time 6:59 AM EDT 7:42 PM EDT
Civil Twilight 6:36 AM EDT 8:06 PM EDT
Nautical Twilight 6:08 AM EDT 8:34 PM EDT
Astronomical Twilight 5:40 AM EDT 9:02 PM EDT
Moon 8:20 AM EDT (4/12) 9:57 PM EDT (4/12)
Length of Visible Light 13h 30m
Length of Day
12h 42m
Waxing Crescent, 5% of the Moon is Illuminated
Apr 12
Waxing Crescent
Apr 18
First Quarter
Apr 25
Full
May 2
Last Quarter
May 9
New

Hourly Weather History & Observations

Time (EDT) Temp. Heat Index Dew Point Humidity Pressure Visibility Wind Dir Wind Speed Gust Speed Precip Events Conditions
12:00 AM 78.8 °F - 75.2 °F 89% 29.92 in 10.0 mi SSE 13.8 mph - N/A   Mostly Cloudy
12:09 AM 78.8 °F - 75.2 °F 89% 29.92 in 10.0 mi SSE 13.8 mph - N/A   Mostly Cloudy
12:31 AM 78.8 °F - 73.4 °F 83% 29.92 in 10.0 mi SSE 13.8 mph 21.9 mph N/A   Scattered Clouds
12:53 AM 78.1 °F - 73.9 °F 87% 29.92 in 10.0 mi SSE 16.1 mph 23.0 mph N/A   Clear
1:53 AM 78.1 °F - 75.0 °F 90% 29.92 in 10.0 mi SSE 12.7 mph 20.7 mph N/A   Mostly Cloudy
2:10 AM 78.8 °F - 73.4 °F 83% 29.92 in 10.0 mi SSE 15.0 mph 25.3 mph N/A   Scattered Clouds
2:40 AM 78.8 °F - 75.2 °F 89% 29.93 in 10.0 mi SSE 10.4 mph - N/A   Overcast
2:49 AM 78.8 °F - 73.4 °F 83% 29.93 in 10.0 mi SSE 10.4 mph 19.6 mph N/A   Mostly Cloudy
2:53 AM 78.1 °F - 73.9 °F 87% 29.94 in 10.0 mi South 13.8 mph - N/A   Mostly Cloudy
3:53 AM 78.1 °F - 73.9 °F 87% 29.94 in 10.0 mi South 10.4 mph - N/A   Overcast
4:53 AM 78.1 °F - 73.9 °F 87% 29.93 in 10.0 mi SSE 13.8 mph - N/A   Partly Cloudy
5:53 AM 78.1 °F - 75.0 °F 90% 29.93 in 10.0 mi SSE 10.4 mph - N/A   Partly Cloudy
6:53 AM 78.1 °F - 75.0 °F 90% 29.95 in 10.0 mi SSE 11.5 mph - N/A   Overcast
7:53 AM 78.1 °F - 75.0 °F 90% 29.95 in 9.0 mi SSE 13.8 mph 18.4 mph N/A   Scattered Clouds
8:53 AM 80.1 °F 85.4 °F 75.9 °F 87% 29.96 in 10.0 mi South 9.2 mph - N/A   Mostly Cloudy
9:53 AM 81.0 °F 87.3 °F 75.9 °F 85% 29.96 in 9.0 mi South 15.0 mph 24.2 mph 0.00 in Rain Light Rain
10:53 AM 82.0 °F 88.6 °F 75.0 °F 79% 29.96 in 10.0 mi South 18.4 mph 24.2 mph 0.00 in   Scattered Clouds
11:53 AM 84.0 °F 91.9 °F 75.0 °F 74% 29.96 in 10.0 mi SSE 18.4 mph 27.6 mph N/A   Scattered Clouds
12:53 PM 84.0 °F 91.9 °F 75.0 °F 74% 29.95 in 10.0 mi SSE 19.6 mph 27.6 mph N/A   Partly Cloudy
1:53 PM 84.9 °F 93.3 °F 75.0 °F 72% 29.93 in 10.0 mi South 16.1 mph 28.8 mph N/A   Clear
2:53 PM 82.9 °F 90.8 °F 75.9 °F 79% 29.91 in 10.0 mi SSE 13.8 mph 27.6 mph N/A   Clear
3:53 PM 80.1 °F 85.4 °F 75.9 °F 87% 29.90 in 10.0 mi SSE 11.5 mph 23.0 mph 0.00 in Rain Light Rain
4:43 PM 82.4 °F 89.5 °F 75.2 °F 79% 29.89 in 10.0 mi South 15.0 mph 23.0 mph 0.00 in Thunderstorm Thunderstorm
4:53 PM 82.0 °F 87.9 °F 73.9 °F 76% 29.89 in 10.0 mi SSE 19.6 mph 27.6 mph 0.00 in   Partly Cloudy
5:53 PM 82.9 °F 88.8 °F 73.0 °F 72% 29.88 in 10.0 mi SSE 18.4 mph 25.3 mph N/A   Clear
6:53 PM 80.1 °F 85.1 °F 75.0 °F 85% 29.90 in 10.0 mi SSE 16.1 mph - N/A   Clear
7:53 PM 79.0 °F - 75.0 °F 88% 29.92 in 10.0 mi SSE 9.2 mph - N/A   Clear
8:53 PM 79.0 °F - 75.0 °F 88% 29.94 in 10.0 mi South 6.9 mph - N/A   Clear
9:53 PM 79.0 °F - 75.0 °F 88% 29.96 in 10.0 mi South 5.8 mph - N/A   Overcast
10:53 PM 79.0 °F - 75.0 °F 88% 29.96 in 10.0 mi South 6.9 mph - N/A   Overcast
11:53 PM 78.1 °F - 75.9 °F 93% 29.97 in 10.0 mi South 6.9 mph - 0.00 in   Scattered Clouds